Location: Bukit Nyuki
(2.5885°N, 113.7476°E)
Time: 17:30:56
(UTC+00:00)

Cosmos 192 - Pass Details

Date: 18 May 2021
Orbit: 702 x 712 km, 74.0° (Epoch: 20 June)

Event Time Altitude Azimuth Distance (km) Brightness Sun altitude
Exits shadow 21:00:14 30° 222° (SW) 1,253 5.1 -18.1°
Maximum altitude 21:02:22 52° 282° (WNW) 877 4.5 -17.6°
Drops below altitude 10° 21:07:10 10° 359° (N) 2,179 7.1 -16.5°
Sets 21:09:32 0° 4° (N) 3,096 8.0 -16.0°
